Home   Weather   Memmingen   Past weeks

Flag for Germany Past Weather in Memmingen, Bavaria, Germany — Yesterday and Last 2 Weeks

Now
52 °F

Cool.


Feels Like: 52 °F
Forecast: 47 / 68 °F
Wind: 1 mph from South

Location: Laupheim Airport

Current Time: Sep 28, 2016 at 12:30:37 AM

Latest Report: Sep 27, 2016 at 11:20 PM


Visibility: 4 mi

Pressure: 30.39 "Hg (28.27 "Hg at 602m altitude)

Humidity: 94%

Dew Point: 50 °F

Location of MemmingenLocation

Past Weather in Memmingen — Graph

°F

Memmingen Temperature Yesterday

Maximum temperature yesterday: 66 °F (at 3:20 PM)
Minimum temperature yesterday: 52 °F (at 1:20 AM)
Average temperature yesterday: 58 °F

High & Low Weather Summary for the Past Weeks

 TemperatureHumidityPressure
High82 °F (Sep 13, 3:20 PM)100% (Sep 14, 6:20 AM)30.39 "Hg (Sep 14, 6:20 AM)
Low39 °F (Sep 22, 5:20 AM)37% (Sep 13, 3:20 PM)29.86 "Hg (Sep 15, 4:20 AM)
Average58 °F80%30.09 "Hg
* Reported Sep 12 11:20 PM — Sep 27 11:20 PM, Memmingen, Weather by CustomWeather, © 2016

Note: Actual official high and low records may vary slightly from our data, if they occured in-between our weather recording intervals... More about our weather records

Advertising

Memmingen Weather History for the Previous 24 Hours

Scroll right to see more
 ConditionsComfort  
Time TempWeatherWind HumidityBarometerVisibility
11:20 PM
Tue, Sep 27
52 °FCool.1 mph94%30.39 "Hg4 mi
10:20 PM54 °FCool.5 mph94%30.39 "HgN/A
9:20 PM55 °FPassing clouds.1 mph94%30.39 "HgN/A
8:20 PM57 °FPassing clouds.3 mph88%30.36 "HgN/A
7:20 PM61 °FPassing clouds.3 mph77%30.36 "HgN/A
6:20 PM64 °FPassing clouds.5 mph64%30.33 "HgN/A
5:20 PM66 °FPassing clouds.6 mph56%30.33 "HgN/A
5:00 PM66 °FPassing clouds.6 mph60%30.33 "HgN/A
4:20 PM66 °FPassing clouds.1 mph60%30.33 "HgN/A
3:20 PM66 °FScattered clouds.6 mph60%30.30 "HgN/A
2:20 PM64 °FScattered clouds.5 mph68%30.30 "HgN/A
1:20 PM63 °FScattered clouds.7 mph73%30.33 "HgN/A
12:20 PM61 °FScattered clouds.2 mph77%30.33 "HgN/A
11:20 AM59 °FPartly sunny.3 mph82%30.30 "HgN/A
10:20 AM57 °FFog.1 mph88%30.30 "Hg3 mi
9:56 AM55 °FFog.1 mph94%30.30 "Hg2 mi
9:20 AM55 °FFog.1 mph94%30.30 "Hg1 mi
8:20 AM54 °FFog.2 mph100%30.27 "Hg1 mi
7:48 AM54 °FFog.3 mph100%30.27 "Hg1 mi
6:20 AM54 °FFog.2 mph94%30.21 "Hg1 mi
5:20 AM52 °FFog.5 mph94%30.24 "Hg1 mi
4:20 AM52 °FFog.5 mph94%30.21 "Hg1 mi
3:20 AM52 °FFog.No wind94%30.21 "Hg1 mi
2:20 AM52 °FFog.No wind100%30.21 "Hg0 mi
1:20 AM52 °FFog.2 mph100%30.21 "Hg0 mi
12:20 AM54 °FFog.No wind100%30.21 "Hg0 mi
Weather by CustomWeather, © 2016

See weather overviewHow to use our weather pages